JST630 YMAV-YBCG

Flight info

Callsign JST630
Flight time 1h 52m
Altitude 34000
Route JUSTY3 ML H66 URKER Y54 BERNI BERN3Y
Aircraft A320/M-V/N

Departure

Time 2026-04-25 00:02
Airport Melbourne Avalon International Airport (YMAV)

Arrival

Time 2026-04-25 01:55
Airport Gold Coast Airport (YBCG)
Time Latitude Longitude Altitude Speed Heading
2026-04-24 23:09 -38.02716 144.47372 32 ft 0 kts
2026-04-24 23:43 -38.02717 144.47372 32 ft 1 kts
2026-04-24 23:44 -38.02731 144.47370 24 ft 2 kts 349°
2026-04-24 23:44 -38.02746 144.47378 31 ft 2 kts 320°
2026-04-24 23:44 -38.02760 144.47391 31 ft 2 kts 309°
2026-04-24 23:44 -38.02765 144.47411 31 ft 2 kts 269°
2026-04-24 23:45 -38.02765 144.47420 30 ft 0 kts 269°
2026-04-24 23:49 -38.02766 144.47413 31 ft 2 kts 265°
2026-04-24 23:49 -38.02786 144.47375 32 ft 7 kts 212°
2026-04-24 23:50 -38.02815 144.47365 32 ft 0 kts 187°
2026-04-24 23:51 -38.02816 144.47365 32 ft 0 kts 187°
2026-04-24 23:52 -38.02827 144.47364 32 ft 3 kts 183°
2026-04-24 23:52 -38.02864 144.47362 30 ft 7 kts 186°
2026-04-24 23:52 -38.02918 144.47352 32 ft 9 kts 187°
2026-04-24 23:53 -38.02985 144.47341 32 ft 11 kts 188°
2026-04-24 23:53 -38.03058 144.47326 32 ft 10 kts 191°
2026-04-24 23:53 -38.03129 144.47295 33 ft 10 kts 205°
2026-04-24 23:53 -38.03188 144.47238 33 ft 11 kts 227°
2026-04-24 23:54 -38.03230 144.47158 33 ft 11 kts 236°
2026-04-24 23:54 -38.03288 144.47086 33 ft 12 kts 216°
2026-04-24 23:54 -38.03370 144.47050 32 ft 10 kts 192°
2026-04-24 23:54 -38.03380 144.47047 31 ft 0 kts 191°
2026-04-24 23:55 -38.03396 144.47043 31 ft 6 kts 190°
2026-04-24 23:55 -38.03474 144.47030 33 ft 15 kts 187°
2026-04-24 23:56 -38.03585 144.47011 34 ft 17 kts 188°
2026-04-24 23:56 -38.03706 144.46991 33 ft 18 kts 187°
2026-04-24 23:56 -38.03828 144.46970 33 ft 18 kts 188°
2026-04-24 23:56 -38.03957 144.46948 33 ft 19 kts 187°
2026-04-24 23:57 -38.04095 144.46925 33 ft 21 kts 188°
2026-04-24 23:57 -38.04240 144.46900 34 ft 22 kts 187°
2026-04-24 23:57 -38.04391 144.46875 34 ft 22 kts 187°
2026-04-24 23:57 -38.04538 144.46850 34 ft 21 kts 187°
2026-04-24 23:58 -38.04686 144.46826 35 ft 22 kts 188°
2026-04-24 23:58 -38.04841 144.46800 34 ft 22 kts 187°
2026-04-24 23:58 -38.04981 144.46777 35 ft 20 kts 187°
2026-04-24 23:58 -38.05115 144.46754 34 ft 15 kts 188°
2026-04-24 23:59 -38.05223 144.46734 35 ft 16 kts 188°
2026-04-24 23:59 -38.05293 144.46722 35 ft 1 kts 187°
2026-04-24 23:59 -38.05311 144.46719 35 ft 6 kts 187°
2026-04-24 23:59 -38.05372 144.46707 35 ft 10 kts 195°
2026-04-25 00:00 -38.05430 144.46647 34 ft 12 kts 240°
2026-04-25 00:00 -38.05438 144.46553 35 ft 10 kts 278°
2026-04-25 00:00 -38.05425 144.46499 36 ft 5 kts 319°
2026-04-25 00:00 -38.05400 144.46492 36 ft 0 kts
2026-04-25 00:01 -38.05399 144.46492 36 ft 1 kts
2026-04-25 00:02 -38.05255 144.46515 33 ft 62 kts
2026-04-25 00:02 -38.04560 144.46633 33 ft 136 kts
2026-04-25 00:02 -38.03500 144.46814 426 ft 160 kts
2026-04-25 00:02 -38.02393 144.47002 1327 ft 160 kts
2026-04-25 00:03 -38.01277 144.47197 2180 ft 166 kts
2026-04-25 00:03 -38.00178 144.47948 2562 ft 198 kts 34°
2026-04-25 00:03 -37.99162 144.49230 3157 ft 210 kts 39°
2026-04-25 00:03 -37.98165 144.50632 3889 ft 217 kts 40°
2026-04-25 00:04 -37.97145 144.52078 4630 ft 223 kts 41°
2026-04-25 00:04 -37.96090 144.53553 5369 ft 229 kts 42°
2026-04-25 00:04 -37.94961 144.55097 5907 ft 248 kts 43°
2026-04-25 00:04 -37.93775 144.56700 6365 ft 244 kts 42°
2026-04-25 00:05 -37.92512 144.58118 6466 ft 253 kts 34°
2026-04-25 00:05 -37.91056 144.59557 6494 ft 273 kts 34°
2026-04-25 00:05 -37.89551 144.61047 6498 ft 276 kts 34°
2026-04-25 00:05 -37.88034 144.62550 6489 ft 277 kts 34°
2026-04-25 00:06 -37.86510 144.64058 6693 ft 282 kts 35°
2026-04-25 00:06 -37.84964 144.65584 7564 ft 281 kts 34°
2026-04-25 00:06 -37.83418 144.67107 8414 ft 283 kts 34°
2026-04-25 00:06 -37.81855 144.68644 9220 ft 286 kts 34°
2026-04-25 00:07 -37.80272 144.70200 10017 ft 290 kts 34°
2026-04-25 00:07 -37.78643 144.71797 10453 ft 307 kts 34°
2026-04-25 00:07 -37.76884 144.73514 10629 ft 331 kts 34°
2026-04-25 00:07 -37.75002 144.75352 10859 ft 349 kts 34°
2026-04-25 00:08 -37.73065 144.77254 11449 ft 355 kts 34°
2026-04-25 00:08 -37.71112 144.79179 12081 ft 359 kts 35°
2026-04-25 00:08 -37.69127 144.81130 12694 ft 363 kts 35°
2026-04-25 00:08 -37.67124 144.83097 13369 ft 366 kts 34°
2026-04-25 00:09 -37.65025 144.84898 14044 ft 365 kts 27°
2026-04-25 00:09 -37.62796 144.86467 14651 ft 368 kts 26°
2026-04-25 00:09 -37.60546 144.88037 15203 ft 371 kts 26°
2026-04-25 00:09 -37.58272 144.89618 15732 ft 376 kts 26°
2026-04-25 00:10 -37.55971 144.91216 16254 ft 380 kts 26°
2026-04-25 00:10 -37.53640 144.92839 16751 ft 385 kts 25°
2026-04-25 00:10 -37.51283 144.94478 17293 ft 389 kts 26°
2026-04-25 00:10 -37.48903 144.96133 17844 ft 393 kts 26°
2026-04-25 00:11 -37.46497 144.97801 18410 ft 397 kts 26°
2026-04-25 00:11 -37.44892 144.98917 18779 ft 399 kts 26°
2026-04-25 00:11 -37.41621 145.01190 19450 ft 404 kts 26°
2026-04-25 00:11 -37.39142 145.02909 19933 ft 408 kts 27°
2026-04-25 00:12 -37.36648 145.04643 20489 ft 411 kts 26°
2026-04-25 00:12 -37.34141 145.06386 21023 ft 413 kts 27°
2026-04-25 00:12 -37.31613 145.08144 21528 ft 416 kts 27°
2026-04-25 00:12 -37.29074 145.09905 22007 ft 418 kts 26°
2026-04-25 00:13 -37.26519 145.11675 22488 ft 421 kts 26°
2026-04-25 00:13 -37.23944 145.13457 22932 ft 423 kts 26°
2026-04-25 00:13 -37.21356 145.15245 23384 ft 426 kts 26°
2026-04-25 00:13 -37.18750 145.17044 23833 ft 428 kts 26°
2026-04-25 00:14 -37.16132 145.18849 24206 ft 431 kts 26°
2026-04-25 00:14 -37.13498 145.20662 24572 ft 433 kts 26°
2026-04-25 00:14 -37.10850 145.22483 24909 ft 435 kts 26°
2026-04-25 00:14 -37.08205 145.24354 25239 ft 439 kts 30°
2026-04-25 00:15 -37.05737 145.26646 25552 ft 443 kts 38°
2026-04-25 00:15 -37.03359 145.29124 25857 ft 446 kts 38°
2026-04-25 00:15 -37.00961 145.31613 26170 ft 449 kts 38°
2026-04-25 00:15 -36.98548 145.34109 26489 ft 451 kts 37°
2026-04-25 00:16 -36.96120 145.36611 26806 ft 454 kts 37°
2026-04-25 00:16 -36.93677 145.39126 27119 ft 456 kts 37°
2026-04-25 00:16 -36.91222 145.41654 27422 ft 459 kts 38°
2026-04-25 00:16 -36.88752 145.44198 27718 ft 461 kts 37°
2026-04-25 00:17 -36.86273 145.46749 28018 ft 463 kts 38°
2026-04-25 00:17 -36.83784 145.49306 28446 ft 462 kts 38°
2026-04-25 00:17 -36.81304 145.51852 28891 ft 462 kts 37°
2026-04-25 00:17 -36.78824 145.54396 29324 ft 461 kts 38°
2026-04-25 00:18 -36.76344 145.56939 29740 ft 461 kts 38°
2026-04-25 00:18 -36.73870 145.59474 30169 ft 461 kts 38°
2026-04-25 00:18 -36.71395 145.62008 30595 ft 460 kts 38°
2026-04-25 00:18 -36.68919 145.64543 30964 ft 460 kts 38°
2026-04-25 00:19 -36.66444 145.67072 31333 ft 459 kts 38°
2026-04-25 00:19 -36.63973 145.69592 31710 ft 459 kts 38°
2026-04-25 00:19 -36.61504 145.72108 32068 ft 458 kts 38°
2026-04-25 00:19 -36.59039 145.74616 32470 ft 457 kts 38°
2026-04-25 00:20 -36.56579 145.77120 32859 ft 457 kts 38°
2026-04-25 00:20 -36.54125 145.79619 33239 ft 456 kts 39°
2026-04-25 00:20 -36.51667 145.82120 33613 ft 456 kts 39°
2026-04-25 00:20 -36.49214 145.84612 33988 ft 456 kts 39°
2026-04-25 00:21 -36.46759 145.87104 34349 ft 455 kts 39°
2026-04-25 00:21 -36.44306 145.89596 34676 ft 455 kts 39°
2026-04-25 00:21 -36.41852 145.92086 34976 ft 455 kts 39°
2026-04-25 00:21 -36.39400 145.94573 35271 ft 455 kts 39°
2026-04-25 00:22 -36.36917 145.97085 35557 ft 454 kts 39°
2026-04-25 00:22 -36.35293 145.98724 35743 ft 454 kts 38°
2026-04-25 00:22 -36.32842 146.01196 36017 ft 454 kts 38°
2026-04-25 00:22 -36.30393 146.03662 36274 ft 454 kts 38°
2026-04-25 00:23 -36.27940 146.06133 36534 ft 454 kts 39°
2026-04-25 00:23 -36.25491 146.08601 36797 ft 454 kts 39°
2026-04-25 00:23 -36.23043 146.11066 37052 ft 453 kts 39°
2026-04-25 00:23 -36.20597 146.13529 37289 ft 453 kts 39°
2026-04-25 00:24 -36.18155 146.15991 37438 ft 454 kts 39°
2026-04-25 00:24 -36.15687 146.18473 37463 ft 458 kts 39°
2026-04-25 00:24 -36.10691 146.23488 37466 ft 465 kts 39°
2026-04-25 00:25 -36.05655 146.28522 37465 ft 466 kts 39°
2026-04-25 00:25 -36.00617 146.33558 37461 ft 466 kts 39°
2026-04-25 00:26 -35.95571 146.38596 37467 ft 466 kts 39°
2026-04-25 00:26 -35.90526 146.43628 37470 ft 467 kts 39°
2026-04-25 00:27 -35.85462 146.48663 37477 ft 468 kts 39°
2026-04-25 00:27 -35.80398 146.53691 37479 ft 468 kts 39°
2026-04-25 00:28 -35.75321 146.58725 37481 ft 468 kts 39°
2026-04-25 00:28 -35.70212 146.63786 37482 ft 468 kts 39°
2026-04-25 00:29 -35.65134 146.68804 37481 ft 468 kts 39°
2026-04-25 00:29 -35.60044 146.73813 37488 ft 469 kts 38°
2026-04-25 00:30 -35.54954 146.78818 37487 ft 469 kts 38°
2026-04-25 00:30 -35.49859 146.83820 37484 ft 469 kts 39°
2026-04-25 00:31 -35.44767 146.88824 37494 ft 469 kts 39°
2026-04-25 00:31 -35.39677 146.93821 37490 ft 469 kts 39°
2026-04-25 00:32 -35.34587 146.98802 37482 ft 468 kts 39°
2026-04-25 00:32 -35.29491 147.03778 37483 ft 469 kts 39°
2026-04-25 00:33 -35.24382 147.08749 37492 ft 469 kts 39°
2026-04-25 00:33 -35.19275 147.13720 37494 ft 469 kts 39°
2026-04-25 00:34 -35.14165 147.18678 37491 ft 469 kts 39°
2026-04-25 00:34 -35.09049 147.23630 37492 ft 469 kts 39°
2026-04-25 00:35 -35.03936 147.28585 37495 ft 469 kts 39°
2026-04-25 00:35 -34.98826 147.33530 37490 ft 469 kts 39°
2026-04-25 00:36 -34.93699 147.38471 37499 ft 469 kts 39°
2026-04-25 00:36 -34.88583 147.43403 37497 ft 469 kts 39°
2026-04-25 00:37 -34.83466 147.48319 37491 ft 469 kts 39°
2026-04-25 00:37 -34.78344 147.53234 37492 ft 469 kts 39°
2026-04-25 00:38 -34.73225 147.58144 37487 ft 468 kts 39°
2026-04-25 00:38 -34.68105 147.63050 37482 ft 468 kts 39°
2026-04-25 00:39 -34.62988 147.67941 37491 ft 468 kts 39°
2026-04-25 00:39 -34.57868 147.72829 37489 ft 468 kts 39°
2026-04-25 00:40 -34.52706 147.77740 37483 ft 468 kts 39°
2026-04-25 00:40 -34.47608 147.82583 37484 ft 469 kts 39°
2026-04-25 00:41 -34.42441 147.87490 37489 ft 469 kts 39°
2026-04-25 00:41 -34.37311 147.92365 37490 ft 469 kts 39°
2026-04-25 00:42 -34.32200 147.97209 37493 ft 469 kts 39°
2026-04-25 00:42 -34.27022 148.02096 37490 ft 469 kts 39°
2026-04-25 00:43 -34.21902 148.06921 37492 ft 469 kts 39°
2026-04-25 00:43 -34.16719 148.11801 37488 ft 470 kts 39°
2026-04-25 00:44 -34.11559 148.16645 37489 ft 470 kts 39°
2026-04-25 00:44 -34.06401 148.21488 37496 ft 470 kts 39°
2026-04-25 00:45 -34.01235 148.26332 37493 ft 470 kts 39°
2026-04-25 00:45 -33.96067 148.31165 37491 ft 470 kts 39°
2026-04-25 00:46 -33.90883 148.35998 37491 ft 470 kts 39°
2026-04-25 00:47 -33.83128 148.43244 37493 ft 471 kts 39°
2026-04-25 00:47 -33.77955 148.48068 37500 ft 471 kts 39°
2026-04-25 00:48 -33.72773 148.52886 37492 ft 471 kts 39°
2026-04-25 00:48 -33.67583 148.57692 37491 ft 471 kts 39°
2026-04-25 00:49 -33.62393 148.62494 37493 ft 471 kts 39°
2026-04-25 00:49 -33.57202 148.67304 37485 ft 472 kts 39°
2026-04-25 00:50 -33.52002 148.72108 37485 ft 472 kts 39°
2026-04-25 00:50 -33.46796 148.76904 37491 ft 472 kts 39°
2026-04-25 00:51 -33.41584 148.81694 37489 ft 472 kts 39°
2026-04-25 00:51 -33.36381 148.86483 37491 ft 472 kts 39°
2026-04-25 00:52 -33.31172 148.91271 37487 ft 472 kts 39°
2026-04-25 00:52 -33.25961 148.96038 37484 ft 472 kts 39°
2026-04-25 00:53 -33.20747 149.00805 37485 ft 472 kts 39°
2026-04-25 00:53 -33.15536 149.05577 37495 ft 472 kts 39°
2026-04-25 00:54 -33.10317 149.10336 37492 ft 472 kts 39°
2026-04-25 00:54 -33.05096 149.15078 37486 ft 472 kts 39°
2026-04-25 00:55 -33.00721 149.19053 37481 ft 472 kts 39°
2026-04-25 00:55 -32.95526 149.23776 37478 ft 471 kts 40°
2026-04-25 00:56 -32.90293 149.28535 37485 ft 472 kts 40°
2026-04-25 00:56 -32.85066 149.33261 37480 ft 472 kts 39°
2026-04-25 00:57 -32.79834 149.37980 37476 ft 472 kts 39°
2026-04-25 00:57 -32.74607 149.42703 37475 ft 472 kts 40°
2026-04-25 00:58 -32.69366 149.47431 37471 ft 473 kts 40°
2026-04-25 00:58 -32.64127 149.52148 37469 ft 473 kts 40°
2026-04-25 00:59 -32.58880 149.56865 37468 ft 473 kts 40°
2026-04-25 00:59 -32.53611 149.61549 37487 ft 474 kts 39°
2026-04-25 01:00 -32.48235 149.66083 37476 ft 475 kts 38°
2026-04-25 01:00 -32.42809 149.70569 37471 ft 475 kts 38°
2026-04-25 01:01 -32.37399 149.75081 37473 ft 475 kts 38°
2026-04-25 01:01 -32.32008 149.79621 37474 ft 476 kts 38°
2026-04-25 01:02 -32.26821 149.83986 37471 ft 476 kts 38°
2026-04-25 01:02 -32.21377 149.88549 37470 ft 477 kts 38°
2026-04-25 01:03 -32.15989 149.93043 37483 ft 477 kts 38°
2026-04-25 01:03 -32.10563 149.97559 37476 ft 477 kts 38°
2026-04-25 01:04 -32.05108 150.02103 37472 ft 477 kts 38°
2026-04-25 01:04 -31.99684 150.06612 37475 ft 477 kts 38°
2026-04-25 01:05 -31.94262 150.11115 37471 ft 477 kts 38°
2026-04-25 01:05 -31.88868 150.15599 37459 ft 478 kts 38°
2026-04-25 01:06 -31.83398 150.20134 37473 ft 478 kts 38°
2026-04-25 01:06 -31.77956 150.24625 37461 ft 479 kts 38°
2026-04-25 01:07 -31.72505 150.29124 37457 ft 479 kts 38°
2026-04-25 01:07 -31.67044 150.33627 37453 ft 480 kts 38°
2026-04-25 01:08 -31.61590 150.38152 37440 ft 479 kts 42°
2026-04-25 01:08 -31.56608 150.43285 37447 ft 476 kts 46°
2026-04-25 01:09 -31.51671 150.48482 37454 ft 477 kts 46°
2026-04-25 01:09 -31.46727 150.53671 37444 ft 477 kts 46°
2026-04-25 01:10 -31.41773 150.58856 37437 ft 478 kts 46°
2026-04-25 01:10 -31.36810 150.64035 37449 ft 478 kts 46°
2026-04-25 01:11 -31.31851 150.69215 37445 ft 478 kts 46°
2026-04-25 01:11 -31.26879 150.74395 37436 ft 478 kts 46°
2026-04-25 01:12 -31.21909 150.79568 37457 ft 478 kts 46°
2026-04-25 01:12 -31.16939 150.84730 37457 ft 478 kts 46°
2026-04-25 01:13 -31.11974 150.89887 37450 ft 478 kts 46°
2026-04-25 01:13 -31.07005 150.95044 37423 ft 478 kts 46°
2026-04-25 01:14 -31.02022 151.00193 37422 ft 478 kts 46°
2026-04-25 01:14 -30.97044 151.05337 37444 ft 478 kts 46°
2026-04-25 01:15 -30.92031 151.10514 37435 ft 478 kts 46°
2026-04-25 01:15 -30.87081 151.15606 37428 ft 478 kts 46°
2026-04-25 01:16 -30.82071 151.20765 37435 ft 478 kts 46°
2026-04-25 01:16 -30.77092 151.25884 37426 ft 478 kts 46°
2026-04-25 01:17 -30.72101 151.30994 37422 ft 478 kts 46°
2026-04-25 01:17 -30.67111 151.36103 37449 ft 478 kts 46°
2026-04-25 01:18 -30.62125 151.41205 37436 ft 478 kts 46°
2026-04-25 01:18 -30.57139 151.46306 37444 ft 478 kts 46°
2026-04-25 01:19 -30.52145 151.51400 37435 ft 478 kts 46°
2026-04-25 01:19 -30.47144 151.56493 37424 ft 478 kts 46°
2026-04-25 01:20 -30.42139 151.61574 37432 ft 478 kts 46°
2026-04-25 01:20 -30.37225 151.66748 37452 ft 476 kts 50°
2026-04-25 01:21 -30.32640 151.72265 37215 ft 474 kts 52°
2026-04-25 01:21 -30.30412 151.75062 36954 ft 472 kts 52°
2026-04-25 01:21 -30.28176 151.77854 36696 ft 473 kts 52°
2026-04-25 01:21 -30.25914 151.80627 36446 ft 474 kts 51°
2026-04-25 01:22 -30.23628 151.83378 36200 ft 474 kts 51°
2026-04-25 01:22 -30.21323 151.86114 35950 ft 475 kts 50°
2026-04-25 01:22 -30.19014 151.88841 35704 ft 475 kts 50°
2026-04-25 01:22 -30.16700 151.91572 35477 ft 475 kts 50°
2026-04-25 01:23 -30.14390 151.94303 35253 ft 474 kts 50°
2026-04-25 01:23 -30.12098 151.97022 35014 ft 471 kts 50°
2026-04-25 01:23 -30.09818 151.99734 34780 ft 471 kts 50°
2026-04-25 01:23 -30.07533 152.02448 34541 ft 470 kts 50°
2026-04-25 01:24 -30.05254 152.05154 34287 ft 470 kts 50°
2026-04-25 01:24 -30.02973 152.07857 34004 ft 470 kts 50°
2026-04-25 01:24 -30.00689 152.10560 33745 ft 470 kts 50°
2026-04-25 01:24 -29.98410 152.13257 33481 ft 469 kts 50°
2026-04-25 01:25 -29.96130 152.15949 33215 ft 469 kts 50°
2026-04-25 01:25 -29.93848 152.18641 32954 ft 469 kts 50°
2026-04-25 01:25 -29.91570 152.21330 32694 ft 468 kts 50°
2026-04-25 01:25 -29.89300 152.24016 32435 ft 468 kts 50°
2026-04-25 01:26 -29.87028 152.26702 32180 ft 467 kts 50°
2026-04-25 01:26 -29.84758 152.29379 31927 ft 466 kts 50°
2026-04-25 01:26 -29.82518 152.32017 31671 ft 455 kts 50°
2026-04-25 01:26 -29.80327 152.34592 31427 ft 445 kts 50°
2026-04-25 01:27 -29.78178 152.37112 31183 ft 435 kts 50°
2026-04-25 01:27 -29.76080 152.39571 30936 ft 425 kts 50°
2026-04-25 01:27 -29.74031 152.41977 30692 ft 417 kts 50°
2026-04-25 01:28 -29.70686 152.45905 30256 ft 404 kts 51°
2026-04-25 01:28 -29.68735 152.48195 29972 ft 398 kts 51°
2026-04-25 01:28 -29.66812 152.50450 29691 ft 392 kts 51°
2026-04-25 01:28 -29.64886 152.52714 29405 ft 405 kts 50°
2026-04-25 01:29 -29.62866 152.55104 29026 ft 428 kts 51°
2026-04-25 01:29 -29.60743 152.57614 28639 ft 448 kts 50°
2026-04-25 01:29 -29.58538 152.60204 28265 ft 456 kts 50°
2026-04-25 01:29 -29.56311 152.62804 27901 ft 457 kts 49°
2026-04-25 01:30 -29.54079 152.65397 27529 ft 455 kts 49°
2026-04-25 01:30 -29.51854 152.67975 27165 ft 453 kts 49°
2026-04-25 01:30 -29.49643 152.70540 26812 ft 451 kts 49°
2026-04-25 01:30 -29.47445 152.73093 26458 ft 448 kts 49°
2026-04-25 01:31 -29.45265 152.75626 26110 ft 445 kts 49°
2026-04-25 01:31 -29.43097 152.78151 25762 ft 443 kts 49°
2026-04-25 01:31 -29.40941 152.80667 25423 ft 441 kts 49°
2026-04-25 01:31 -29.38793 152.83169 25099 ft 439 kts 49°
2026-04-25 01:32 -29.36652 152.85658 24771 ft 438 kts 49°
2026-04-25 01:32 -29.34517 152.88137 24440 ft 436 kts 49°
2026-04-25 01:32 -29.32389 152.90603 24113 ft 434 kts 49°
2026-04-25 01:32 -29.30273 152.93053 23760 ft 432 kts 49°
2026-04-25 01:33 -29.28166 152.95494 23376 ft 429 kts 49°
2026-04-25 01:33 -29.26078 152.97915 22994 ft 426 kts 49°
2026-04-25 01:33 -29.23999 153.00321 22637 ft 424 kts 48°
2026-04-25 01:33 -29.21930 153.02714 22349 ft 422 kts 49°
2026-04-25 01:34 -29.19870 153.05097 22085 ft 420 kts 48°
2026-04-25 01:34 -29.17819 153.07464 21831 ft 419 kts 48°
2026-04-25 01:34 -29.15771 153.09826 21574 ft 417 kts 48°
2026-04-25 01:34 -29.13725 153.12182 21319 ft 416 kts 48°
2026-04-25 01:35 -29.11693 153.14524 21067 ft 414 kts 48°
2026-04-25 01:35 -29.09671 153.16854 20821 ft 412 kts 47°
2026-04-25 01:35 -29.07658 153.19172 20574 ft 410 kts 48°
2026-04-25 01:35 -29.05653 153.21483 20324 ft 408 kts 48°
2026-04-25 01:36 -29.03659 153.23780 20082 ft 406 kts 48°
2026-04-25 01:36 -29.01668 153.26066 19835 ft 405 kts 48°
2026-04-25 01:36 -28.99685 153.28339 19595 ft 403 kts 48°
2026-04-25 01:36 -28.97711 153.30605 19399 ft 401 kts 48°
2026-04-25 01:37 -28.95748 153.32863 19356 ft 401 kts 48°
2026-04-25 01:37 -28.93778 153.35127 19365 ft 402 kts 47°
2026-04-25 01:37 -28.91805 153.37392 19367 ft 402 kts 47°
2026-04-25 01:37 -28.89835 153.39652 19366 ft 402 kts 48°
2026-04-25 01:38 -28.87859 153.41913 19361 ft 402 kts 48°
2026-04-25 01:38 -28.85878 153.44169 19371 ft 402 kts 46°
2026-04-25 01:38 -28.83688 153.46166 19362 ft 404 kts 36°
2026-04-25 01:38 -28.81203 153.47690 19356 ft 407 kts 26°
2026-04-25 01:39 -28.78580 153.48885 18650 ft 410 kts 24°
2026-04-25 01:39 -28.75910 153.50075 17510 ft 412 kts 24°
2026-04-25 01:39 -28.73250 153.51246 17040 ft 406 kts 24°
2026-04-25 01:39 -28.70626 153.52398 16451 ft 403 kts 24°
2026-04-25 01:40 -28.68016 153.53546 15860 ft 400 kts 25°
2026-04-25 01:40 -28.65430 153.54688 15282 ft 397 kts 25°
2026-04-25 01:40 -28.62866 153.55823 14677 ft 394 kts 25°
2026-04-25 01:40 -28.60318 153.56956 14062 ft 391 kts 25°
2026-04-25 01:41 -28.57789 153.58082 13422 ft 388 kts 25°
2026-04-25 01:41 -28.55295 153.59189 12819 ft 382 kts 25°
2026-04-25 01:41 -28.52830 153.60279 12224 ft 377 kts 25°
2026-04-25 01:41 -28.50337 153.61328 11379 ft 380 kts 23°
2026-04-25 01:42 -28.47859 153.62287 10761 ft 378 kts 22°
2026-04-25 01:42 -28.45414 153.63180 10629 ft 360 kts 22°
2026-04-25 01:42 -28.43046 153.64028 10506 ft 344 kts 22°
2026-04-25 01:42 -28.40810 153.64838 10386 ft 330 kts 22°
2026-04-25 01:43 -28.38666 153.65627 10266 ft 318 kts 22°
2026-04-25 01:43 -28.36598 153.66382 10133 ft 307 kts 22°
2026-04-25 01:43 -28.34596 153.67106 9954 ft 298 kts 22°
2026-04-25 01:43 -28.32618 153.67825 9495 ft 299 kts 23°
2026-04-25 01:44 -28.30651 153.68524 9216 ft 296 kts 19°
2026-04-25 01:44 -28.28590 153.68782 8860 ft 301 kts
2026-04-25 01:44 -28.26522 153.68337 8473 ft 305 kts 343°
2026-04-25 01:44 -28.24590 153.67335 7822 ft 306 kts 337°
2026-04-25 01:45 -28.22683 153.66271 7223 ft 305 kts 337°
2026-04-25 01:45 -28.20775 153.65207 6542 ft 308 kts 337°
2026-04-25 01:45 -28.18891 153.64156 6218 ft 293 kts 337°
2026-04-25 01:45 -28.17119 153.63164 6079 ft 274 kts 337°
2026-04-25 01:46 -28.15535 153.62097 5965 ft 258 kts 322°
2026-04-25 01:46 -28.14310 153.60628 5676 ft 258 kts 306°
2026-04-25 01:46 -28.13259 153.58977 5361 ft 259 kts 306°
2026-04-25 01:46 -28.12207 153.57318 5067 ft 259 kts 306°
2026-04-25 01:47 -28.11153 153.55653 4745 ft 260 kts 306°
2026-04-25 01:47 -28.10097 153.53985 4444 ft 261 kts 305°
2026-04-25 01:47 -28.09030 153.52301 4117 ft 264 kts 306°
2026-04-25 01:47 -28.07966 153.50623 3805 ft 259 kts 305°
2026-04-25 01:48 -28.06930 153.48991 3495 ft 252 kts 306°
2026-04-25 01:48 -28.05917 153.47401 3199 ft 246 kts 306°
2026-04-25 01:48 -28.04926 153.45849 2906 ft 241 kts 305°
2026-04-25 01:48 -28.03969 153.44350 2822 ft 228 kts 305°
2026-04-25 01:49 -28.03081 153.42959 2747 ft 210 kts 304°
2026-04-25 01:49 -28.02251 153.41662 2632 ft 197 kts 303°
2026-04-25 01:49 -28.01770 153.40306 2524 ft 180 kts 265°
2026-04-25 01:49 -28.02016 153.39024 2422 ft 158 kts 229°
2026-04-25 01:50 -28.02712 153.38173 2325 ft 141 kts 200°
2026-04-25 01:50 -28.03591 153.37820 2249 ft 130 kts 178°
2026-04-25 01:50 -28.04463 153.37920 2176 ft 124 kts 156°
2026-04-25 01:50 -28.05190 153.38399 2110 ft 123 kts 136°
2026-04-25 01:51 -28.05702 153.39174 2029 ft 124 kts 122°
2026-04-25 01:51 -28.06123 153.40027 1964 ft 123 kts 122°
2026-04-25 01:51 -28.06539 153.40873 1885 ft 123 kts 122°
2026-04-25 01:51 -28.06953 153.41714 1802 ft 123 kts 122°
2026-04-25 01:52 -28.07369 153.42558 1727 ft 123 kts 122°
2026-04-25 01:52 -28.07782 153.43396 1650 ft 122 kts 122°
2026-04-25 01:52 -28.08200 153.44245 1571 ft 124 kts 122°
2026-04-25 01:52 -28.08622 153.45103 1488 ft 124 kts 122°
2026-04-25 01:53 -28.09146 153.45869 1415 ft 124 kts 138°
2026-04-25 01:53 -28.09871 153.46403 1334 ft 124 kts 148°
2026-04-25 01:53 -28.10611 153.46870 1156 ft 121 kts 148°
2026-04-25 01:53 -28.11339 153.47331 1003 ft 119 kts 147°
2026-04-25 01:54 -28.12064 153.47792 953 ft 120 kts 147°
2026-04-25 01:54 -28.12798 153.48265 823 ft 121 kts 148°
2026-04-25 01:54 -28.13560 153.48748 653 ft 127 kts 153°
2026-04-25 01:54 -28.14360 153.49242 450 ft 133 kts 150°
2026-04-25 01:55 -28.15168 153.49748 229 ft 132 kts 147°
2026-04-25 01:55 -28.15953 153.50264 35 ft 123 kts 148°
2026-04-25 01:55 -28.16467 153.50590 29 ft 36 kts 152°
2026-04-25 01:55 -28.16559 153.50735 29 ft 20 kts 71°
2026-04-25 01:56 -28.16534 153.50788 29 ft 0 kts 60°